This demonstration page uses our WeatherBlox Daily Observations layout. Learn more.

Left ArrowRight Arrow

Hourly Observations for April 26, 2015

Temp ( °F °C ) Dew Point ( °F °C ) Humidity (%) Winds ( mph kmh ) Pressure ( in mb ) Visibility ( mi km ) Precip ( " mm )
12:16 am 00:16 Cloudy 43 6 41 5 93 93 NE 17 28 29.77 1008 10 16.0934 N/A
12:36 am 00:36 Cloudy 43 6 39 4 87 87 NE 16 26 29.77 1008 10 16.0934 N/A
12:55 am 00:55 Cloudy 43 6 36 2 76 76 NE 16 26 29.77 1008 10 16.0934 N/A
1:16 am 01:16 Mostly Cloudy 43 6 32 0 66 66 NE 14 22 29.8 1009 10 16.0934 N/A
1:36 am 01:36 Mostly Cloudy 43 6 30 -1 61 61 NE 12 19 29.8 1009 10 16.0934 N/A
1:55 am 01:55 Cloudy 43 6 27 -3 53 53 NE 10 17 29.8 1009 10 16.0934 N/A
2:16 am 02:16 Cloudy 41 5 25 -4 53 53 NE 13 20 29.8 1009 10 16.0934 N/A
2:36 am 02:36 Cloudy 41 5 25 -4 53 53 NE 10 17 29.8 1009 10 16.0934 N/A
2:55 am 02:55 Cloudy 41 5 25 -4 53 53 NE 9 15 29.8 1009 10 16.0934 N/A
3:16 am 03:16 Cloudy 41 5 25 -4 53 53 NE 9 15 29.8 1009 10 16.0934 N/A
3:36 am 03:36 Cloudy 41 5 27 -3 57 57 NE 12 19 29.8 1009 10 16.0934 N/A
3:55 am 03:55 Cloudy 41 5 27 -3 57 57 NE 10 17 29.8 1009 10 16.0934 N/A
4:16 am 04:16 Cloudy 41 5 27 -3 57 57 NE 12 19 29.8 1009 10 16.0934 N/A
4:36 am 04:36 Mostly Cloudy 41 5 27 -3 57 57 NE 10 17 29.83 1010 10 16.0934 N/A
4:55 am 04:55 Mostly Cloudy 41 5 27 -3 57 57 NNE 10 17 29.83 1010 10 16.0934 N/A
5:16 am 05:16 Cloudy 41 5 28 -2 61 61 NNE 10 17 29.83 1010 10 16.0934 N/A
5:36 am 05:36 Cloudy 41 5 27 -3 57 57 NNE 10 17 29.83 1010 10 16.0934 N/A
5:55 am 05:55 Mostly Cloudy 41 5 28 -2 61 61 NNE 10 17 29.85 1011 10 16.0934 N/A
6:16 am 06:16 Partly Cloudy 41 5 28 -2 61 61 NNE 12 19 29.85 1011 10 16.0934 N/A
6:36 am 06:36 Clear 39 4 28 -2 65 65 N 8 13 29.85 1011 10 16.0934 N/A
6:56 am 06:56 Sunny 39 4 28 -2 65 65 NNE 9 15 29.85 1011 10 16.0934 N/A
7:16 am 07:16 Sunny 39 4 28 -2 65 65 N 10 17 29.85 1011 10 16.0934 N/A
7:36 am 07:36 Sunny 39 4 28 -2 65 65 NNE 10 17 29.85 1011 10 16.0934 N/A
7:56 am 07:56 Sunny 41 5 28 -2 61 61 NNE 13 20 29.85 1011 10 16.0934 N/A
8:16 am 08:16 Sunny 41 5 27 -3 57 57 NNE 12 19 29.88 1012 10 16.0934 N/A
8:36 am 08:36 Sunny 43 6 27 -3 53 53 NNE 14 22 29.91 1013 10 16.0934 N/A
8:56 am 08:56 Sunny 43 6 27 -3 53 53 NNE 12 19 29.91 1013 10 16.0934 N/A
9:16 am 09:16 Sunny 45 7 27 -3 49 49 NNE 10 17 29.91 1013 10 16.0934 N/A
9:36 am 09:36 Sunny 45 7 27 -3 49 49 NNE 13 20 29.91 1013 10 16.0934 N/A
9:56 am 09:56 Sunny 46 8 27 -3 46 46 NE 12 19 29.91 1013 10 16.0934 N/A
10:16 am 10:16 Sunny 48 9 27 -3 43 43 NE 14 22 29.91 1013 10 16.0934 N/A
10:36 am 10:36 Sunny 48 9 27 -3 43 43 NNE 12 19 29.91 1013 10 16.0934 N/A
10:56 am 10:56 Sunny 50 10 27 -3 40 40 NNE 12 19 29.94 1014 10 16.0934 N/A
11:16 am 11:16 Sunny 50 10 27 -3 40 40 N 12 19 29.94 1014 10 16.0934 N/A
11:36 am 11:36 Sunny 52 11 28 -2 41 41 N 13 20 29.91 1013 10 16.0934 N/A
11:56 am 11:56 Sunny 52 11 28 -2 41 41 N 9 15 29.91 1013 10 16.0934 N/A
12:16 pm 12:16 Sunny 52 11 28 -2 41 41 N 15 24 29.91 1013 10 16.0934 N/A
12:36 pm 12:36 Sunny 52 11 28 -2 41 41 NNE 16 26 29.91 1013 10 16.0934 N/A
12:56 pm 12:56 Sunny 54 12 27 -3 35 35 NE 14 22 29.91 1013 10 16.0934 N/A
1:16 pm 13:16 Sunny 54 12 27 -3 35 35 NE 15 24 29.91 1013 10 16.0934 N/A
1:36 pm 13:36 Sunny 54 12 27 -3 35 35 NNE 14 22 29.91 1013 10 16.0934 N/A
1:56 pm 13:56 Sunny 54 12 28 -2 38 38 NNE 13 20 29.91 1013 10 16.0934 N/A
2:16 pm 14:16 Sunny 55 13 27 -3 33 33 N 13 20 29.91 1013 10 16.0934 N/A
2:35 pm 14:35 Sunny 55 13 27 -3 33 33 N 9 15 29.91 1013 10 16.0934 N/A
2:56 pm 14:56 Partly Cloudy 55 13 27 -3 33 33 NNW 16 26 29.91 1013 10 16.0934 N/A
3:16 pm 15:16 Partly Cloudy 55 13 25 -4 31 31 N 13 20 29.91 1013 10 16.0934 N/A
3:36 pm 15:36 Partly Cloudy 57 14 27 -3 31 31 N 13 20 29.91 1013 10 16.0934 N/A
3:56 pm 15:56 Partly Cloudy 55 13 27 -3 33 33 N 10 17 29.91 1013 10 16.0934 N/A
4:16 pm 16:16 Partly Cloudy 55 13 25 -4 31 31 NNE 16 26 29.91 1013 10 16.0934 N/A
4:36 pm 16:36 Partly Cloudy 55 13 25 -4 31 31 NNE 15 24 29.91 1013 10 16.0934 N/A
4:56 pm 16:56 Partly Cloudy 55 13 25 -4 31 31 N 12 19 29.88 1012 10 16.0934 N/A
5:16 pm 17:16 Partly Cloudy 55 13 25 -4 31 31 N 13 20 29.88 1012 10 16.0934 N/A
5:36 pm 17:36 Partly Cloudy 57 14 25 -4 29 29 N 16 26 29.88 1012 10 16.0934 N/A
5:56 pm 17:56 Partly Cloudy 57 14 25 -4 29 29 N 16 26 29.88 1012 10 16.0934 N/A
6:15 pm 18:15 Partly Cloudy 55 13 25 -4 31 31 N 13 20 29.91 1013 10 16.0934 N/A
6:36 pm 18:36 Partly Cloudy 57 14 23 -5 27 27 N 20 31 29.91 1013 10 16.0934 N/A
6:56 pm 18:56 Partly Cloudy 54 12 25 -4 33 33 N 10 17 29.91 1013 10 16.0934 N/A
7:15 pm 19:15 Partly Cloudy 55 13 23 -5 28 28 NNE 14 22 29.91 1013 10 16.0934 N/A
7:36 pm 19:36 Partly Cloudy 54 12 25 -4 33 33 N 12 19 29.91 1013 10 16.0934 N/A
7:56 pm 19:56 Partly Cloudy 52 11 25 -4 35 35 N 8 13 29.91 1013 10 16.0934 N/A
8:15 pm 20:15 Partly Cloudy 52 11 27 -3 38 38 N 8 13 29.91 1013 10 16.0934 N/A
8:36 pm 20:36 Clear 50 10 27 -3 40 40 N 7 11 29.94 1014 10 16.0934 N/A
8:56 pm 20:56 Partly Cloudy 48 9 28 -2 46 46 N 7 11 29.94 1014 10 16.0934 N/A
9:16 pm 21:16 Partly Cloudy 46 8 30 -1 53 53 N 6 9 29.94 1014 10 16.0934 N/A
9:36 pm 21:36 Partly Cloudy 46 8 28 -2 50 50 NNW 5 7 29.97 1015 10 16.0934 N/A
9:56 pm 21:56 Partly Cloudy 48 9 27 -3 43 43 NNW 5 7 29.97 1015 10 16.0934 N/A
10:16 pm 22:16 Mostly Cloudy 48 9 28 -2 46 46 NNW 8 13 29.97 1015 10 16.0934 N/A
10:36 pm 22:36 Cloudy 48 9 30 -1 50 50 NNW 8 13 29.97 1015 10 16.0934 N/A
10:56 pm 22:56 Partly Cloudy 48 9 28 -2 46 46 NNW 12 19 29.97 1015 10 16.0934 N/A
11:16 pm 23:16 Clear 46 8 28 -2 50 50 NNW 10 17 30 1016 10 16.0934 N/A
11:36 pm 23:36 Clear 46 8 28 -2 50 50 NNW 10 17 30 1016 10 16.0934 N/A
11:56 pm 23:56 Clear 45 7 27 -3 49 49 NNW 12 19 30 1016 10 16.0934 N/A

Powered by AerisWeather